OpenBCM V1.08-5-g2f4a (Linux)

Packet Radio Mailbox

IZ3LSV

[San Dona' di P. JN]

 Login: GUEST





  
I0OJJ  > KEPS     14.04.25 02:25l 349 Lines 16626 Bytes #84 (0) @ AMSAT
BID : ORB25104.1
Read: GUEST
Subj: 2Line Orbital Elements 25104.AMSAT
Path: IZ3LSV<I0OJJ
Sent: 250414/0025z @:I0OJJ.ITA.EU [Rome] obcm1.08-6-g5b69
From: I0OJJ @ I0OJJ.ITA.EU (Gustavo)
To:   KEPS @ AMSAT
X-Info: This message was generated automatically


QST de W1STR

AMSAT Orbital Elements for Amateur Satellites in TLE Format
From Orbital Analysis Office
New England Sci-Tech STEM Education Center
Natick, MA April 14, 2025
To all radio amateurs


These element sets describe the orbits of various satellites 
in use by the amateur radio community. For details see:
www.amsat.org/keplerian-elements-formats/

A daily update of element sets is available at:
www.amsat.org/tle/daily-bulletin.txt
or without bulletin text:
www.amsat.org/tle/dailytle.txt


AO-07
1 07530U 74089B   25103.01950310 -.00000037  00000-0  58854-4 0  9998
2 07530 101.9951 106.6677 0011916 230.9201 136.6859 12.53688251306852
UO-11
1 14781U 84021B   25103.49166963  .00002944  00000-0  31742-3 0  9990
2 14781  97.7493  71.0168 0008371 153.9873 206.1767 14.89147467214142
AO-27
1 22825U 93061C   25103.71325363  .00000286  00000-0  12626-3 0  9995
2 22825  98.7419 164.9715 0007254 280.6631  79.3735 14.30773787645855
FO-29
1 24278U 96046B   25103.45289649  .00000042  00000-0  75986-4 0  9991
2 24278  98.5818   4.8518 0350690 130.4942 232.7322 13.53243635415293
NOAA-15
1 25338U 98030A   25103.80479957  .00000379  00000-0  17359-3 0  9998
2 25338  98.5408 130.2889 0010760 159.6037 200.5576 14.26940672400306
GO-32
1 25397U 98043D   25103.50915286  .00000240  00000-0  12396-3 0  9997
2 25397  98.9667  81.4504 0001926  47.4021 312.7319 14.24294362390387
ISS
1 25544U 98067A   25103.51886269  .00014784  00000-0  27110-3 0  9994
2 25544  51.6358 267.3304 0005006  37.5020 322.6317 15.49508064505133
NO-44
1 26931U 01043C   25103.43293343  .00000507  00000-0  22091-3 0  9990
2 26931  67.0497 275.5900 0005574 270.1135  89.9328 14.31694421229089
SO-50
1 27607U 02058C   25103.17688628  .00004118  00000-0  53210-3 0  9992
2 27607  64.5567  17.6994 0049514 347.7458  12.2438 14.81408844200930
CO-55
1 27844U 03031E   25103.48332243  .00000778  00000-0  35810-3 0  9994
2 27844  98.6785 112.4898 0009551   1.1258 358.9940 14.23935222130544
CO-57
1 27848U 03031J   25102.98340825  .00000687  00000-0  32256-3 0  9997
2 27848  98.6812 112.0451 0009873  19.3764 340.7788 14.23277854130224
RS-22
1 27939U 03042A   25103.86757154  .00002855  00000-0  46116-3 0  9994
2 27939  98.3228 271.9695 0011543 184.0070 312.4209 14.72148582152480
NOAA-18
1 28654U 05018A   25103.78479650  .00000398  00000-0  23437-3 0  9998
2 28654  98.8430 183.8981 0013063 291.6632  68.3149 14.13573958 25722
CO-58
1 28895U 05043F   25103.10409510  .00004697  00000-0  77708-3 0  9993
2 28895  98.2402 246.7738 0015742 127.7313 232.5322 14.70728964 38726
CO-65
1 32785U 08021C   25103.52550512  .00011778  00000-0  86342-3 0  9992
2 32785  97.7815  74.3113 0011419  51.8428 308.3824 15.03627673920578
AAUSAT2
1 32788U 08021F   25103.51738652  .00301349  00000-0  24786-2 0  9996
2 32788  97.6010  99.0188 0008695 132.7470 227.4524 15.69457483924496
CO-66
1 32791U 08021J   25103.68245439  .00024345  00000-0  12358-2 0  9994
2 32791  97.7253  82.5359 0005082  39.4806 320.6796 15.16894343921946
RS-30
1 32953U 08025A   25103.82513544  .00000026  00000-0  11352-3 0  9993
2 32953  82.4988 262.4758 0019877 167.3071 192.8514 12.43162273766486
NOAA-19
1 33591U 09005A   25103.85278657  .00000359  00000-0  21552-3 0  9999
2 33591  99.0015 168.2287 0014287 160.3712 199.8013 14.13339048834094
SRMSAT
1 37841U 11058D   25103.18756421  .00000640  00000-0  20427-3 0  9991
2 37841  19.9705 141.8472 0011815 152.6816 254.6783 14.11409924697213
ZACUBE-1
1 39417U 13066B   25103.34458919  .00011049  00000-0  97245-3 0  9999
2 39417  97.7750  60.7074 0043019 242.1423 117.5436 14.95954587616355
Delfi-N3xt
1 39428U 13066N   25102.72628041  .00014410  00000-0  14950-2 0  9993
2 39428  97.8370  21.0675 0085837 189.6456 170.3117 14.87342564610655
GOMX-1
1 39430U 13066Q   25103.82567779  .00003946  00000-0  61853-3 0  9995
2 39430  97.6908 325.9593 0133526  14.7370 345.7668 14.67357833607085
LO-74
1 39440U 13066AA  25103.31504799  .00012676  00000-0  12928-2 0  9991
2 39440  97.8458  48.3089 0063323  10.8964 349.3608 14.89290996614113
AO-73
1 39444U 13066AE  25102.64881289  .00014411  00000-0  11067-2 0  9994
2 39444  97.7692  64.4146 0040118 220.7558 139.0663 15.01219426614891
DTUSAT-2
1 40030U 14033W   25103.15313100  .00015408  00000-0  10255-2 0  9996
2 40030  98.0511  72.2535 0007091 249.5948 110.4517 15.07214158588256
EO-80
1 40032U 14033Y   25103.90648725  .00012547  00000-0  83406-3 0  9995
2 40032  98.0404  72.7750 0008431 176.2106 183.9186 15.07303656588354
LILACSAT-2
1 40908U 15049K   25103.88303774  .00018412  00000-0  50495-3 0  9993
2 40908  97.5107 122.9079 0009631  17.3960 342.7612 15.37288676529517
IO-86
1 40931U 15052B   25038.81889873  .00001817  00000-0  15548-3 0  9993
2 40931   6.0001 108.1159 0012838 187.7041 172.2889 14.78568669506492
Horyu-4
1 41340U 16012D   25103.47110819  .00041832  00000-0  12316-2 0  9997
2 41340  30.9953 155.1991 0008725 182.9935 177.0659 15.33799799504009
Lapan A3
1 41603U 16040E   25103.84907401  .00006186  00000-0  21947-3 0  9996
2 41603  97.1387 110.6972 0013118 108.9982 251.2681 15.29327526489118
CAS-2T
1 41847U 16066G   25103.14536681  .00002171  00000-0  31793-3 0  9995
2 41847  98.4221 178.1019 0346494 352.4599   7.1457 14.43319923442739
CAS-4B
1 42759U 17034B   25103.85745277  .00074013  00000-0  10376-2 0  9992
2 42759  43.0088 298.1197 0019794 256.7727 103.0927 15.55612539433740
CAS-4A
1 42761U 17034D   25103.86426249  .00079381  00000-0  10779-2 0  9991
2 42761  43.0123 295.7352 0021222 261.1827  98.6632 15.56409295433767
TechnoSat
1 42829U 17042E   25103.46610084  .00008191  00000-0  64017-3 0  9999
2 42829  97.3920 274.9084 0015190 110.7516 249.5338 15.01239166422150
AO-91
1 43017U 17073E   25103.18563595  .00020175  00000-0  10501-2 0  9990
2 43017  97.5336 335.4231 0176031   2.5133 357.6936 15.03559436400580
S-Net D
1 43186U 18014G   25103.30114264  .00011373  00000-0  68210-3 0  9993
2 43186  97.5674   6.8068 0011092  67.0619 293.1780 15.11064536393728
S-Net B
1 43187U 18014H   25103.43826671  .00011459  00000-0  68736-3 0  9998
2 43187  97.5681   6.9113 0011753  62.4855 297.7568 15.11050512393749
S-Net A
1 43188U 18014J   25102.70574255  .00010322  00000-0  61954-3 0  9999
2 43188  97.5692   6.3291 0011707  65.2102 295.0344 15.11056251393635
S-Net C
1 43189U 18014K   25103.24188475  .00010199  00000-0  61223-3 0  9996
2 43189  97.5707   6.8640 0013094  56.6278 303.6203 15.11041797392262
Ten-Koh
1 43677U 18084G   25102.90979850  .00005697  00000-0  46034-3 0  9992
2 43677  98.0936 272.8706 0009859 111.3051 248.9225 15.00199803351590
PO-101
1 43678U 18084H   25103.81846366  .00004912  00000-0  42125-3 0  9995
2 43678  98.0989 277.7971 0009772 115.7227 244.5004 14.97968263351882
QO-100
1 43700U 18090A   25102.82616395  .00000148  00000-0  00000-0 0  9995
2 43700   0.0178 131.2678 0001838 287.7347 105.4829  1.00273910 23364
MinXSS-2
1 43758U 18099A   25103.43134378  .00032301  00000-0  13490-2 0  9996
2 43758  97.5067 169.3537 0011333   3.7870 356.3450 15.23513098348269
AO-95
1 43770U 18099N   25102.65522690  .00018367  00000-0  95978-3 0  9999
2 43770  97.4971 161.4145 0011858  60.5802 299.6612 15.15878243347773
RANGE-A
1 43773U 18099R   25102.10601462  .00008649  00000-0  55927-3 0  9999
2 43773  97.4541 152.2084 0012222  40.5990 319.6148 15.08373756347409
MOVE-II
1 43780U 18099Y   25103.63990678  .00154806  00000-0  22037-2 0  9998
2 43780  97.4708 175.8368 0001791 267.2093  92.8956 15.55806769348897
SNUSat 2
1 43782U 18099AA  25102.91270418  .00015921  00000-0  89101-3 0  9993
2 43782  97.4657 158.8798 0011634   0.6928 359.4317 15.13472824347777
SnugLite
1 43784U 18099AC  25103.09354092  .00019685  00000-0  10205-2 0  9995
2 43784  97.4475 158.5108 0003244  23.1721 336.9657 15.16199531347926
ITASat 1
1 43786U 18099AE  25102.65877047  .00012688  00000-0  74042-3 0  9994
2 43786  97.4624 158.3044 0015570  52.1976 308.0661 15.11974482347702
EAGLET 1
1 43790U 18099AJ  25103.11685280  .00008752  00000-0  56510-3 0  9994
2 43790  97.4817 158.8861 0012704  33.8521 326.3516 15.08418038347406
ESEO
1 43792U 18099AL  25103.12749506  .00003955  00000-0  30309-3 0  9997
2 43792  97.4560 152.9151 0011882  13.1776 346.9758 15.02340607347191
CSIM
1 43793U 18099AM  25103.61241485  .00149539  00000-0  21070-2 0  9998
2 43793  97.4889 177.9673 0004599 289.8744  70.2014 15.56097127348734
JO-97
1 43803U 18099AX  25103.11745778  .00024044  00000-0  11433-2 0  9994
2 43803  97.4720 162.7535 0006743 356.3309   3.7875 15.19167362348047
Suomi 100
1 43804U 18099AY  25102.91197796  .00020409  00000-0  10322-2 0  9990
2 43804  97.4786 161.9993 0011876 355.2347   4.8771 15.17007403347955
ISAT
1 43879U 18111D   25102.69556679  .00038840  00000-0  14559-2 0  9995
2 43879  97.5999  15.9129 0011438  52.7002 307.5277 15.27087814344859
UWE-4
1 43880U 18111E   25103.19098979  .00032594  00000-0  13511-2 0  9994
2 43880  97.5938  15.2720 0014671  58.2321 302.0342 15.23724185342880
Sparrow
1 43881U 18111F   25103.50689211  .00036350  00000-0  13178-2 0  9998
2 43881  97.6130  19.4068 0010180  82.6249 277.6146 15.28217833343060
Prox-1
1 44339U 19036A   25103.61870603  .00019115  00000-0  25237-2 0  9992
2 44339  23.9967  75.5742 0007483 145.2755 214.8231 14.78454792309668
SONATE
1 44400U 19038Q   25103.84974267  .00147018  00000-0  10979-2 0  9990
2 44400  97.7001 124.0925 0009949 107.3021 252.9330 15.72214134320601
Taurus 1
1 44530U 19059C   25103.84944010  .00014424  00000-0  27057-2 0  9999
2 44530  98.5994 240.6099 0010542 205.2888 154.7798 14.64810778295639
